STARLINK-3373

decayed
NORAD ID: 51122 Int'l Des: 2022-005 Owner: SPXS Country: US Constellation: starlink
LEOCIRCULAR
Gruppe

Über STARLINK-3373

Beschreibung wird geladen...

Höhenverlauf

Altitude vs Time

uPlot chart will show altitude changes over time

Zweizeiliger Elementsatz

1 51122U 22005U 24186.06856786 .23192052 12451-4 64011-3 0 9993
2 51122 53.1958 120.5493 0007815 254.2252 217.6185 16.44987962137952
Epoch: 4. Juli 2024 • Age: 10521 hours

Aktueller Status

Position data unavailable
Startdatum 19. Jan. 2022
Alter 3.6 years
Verglühungsdatum 4. Juli 2024
Typ internet

Technische Details

Klassifizierung Payload
Masse 297.00 kg
Trockenmasse 275.00 kg
Gesamtmasse 297.00 kg
Länge 0.20 m
Durchmesser 2.80 m
Spannweite 9.00 m
Form Box + pan
Hersteller SPXS
Bus-Typ Starlink
Phasenstatus Unknown Transfer Status
Besitzer/Staat SPXS/US

Große Konstellationen

Loading constellations...